Date String (YYYY-MM-DD hh:mm:ss) UTC,Instrument flags,Ambient pressure (hPa),Sample flow (lpm),Bypass flow (lpm),Sample temperature (°C),Ambient temperature (°C),ASC tube jacket temperature (°C),LED temperature (°C),Box temperature (°C),Sample RH (%),Span deviation,Mass concentration (μg/m³),Mass concentration (μg/m³),Mass concentration (μg/m³)
DateTimeUTC,F1_M11,P_M11,Q1_M11,Q2_M11,T1_M11,T2_M11,T3_M11,T4_M11,T5_M11,U1_M11,ZSPAN_M11,X0_M11,X2_M11,X1_M11
2022-07-04 13:00:00,,0825.7,5.00,0.00,29.8,28.6,00.0,38.6,31.7,24.1,0000.0,0005.61,0003.16,0002.40
2022-07-04 13:01:00,,0825.7,5.01,0.00,29.8,28.6,00.0,38.7,31.7,24.1,0000.0,0005.58,0003.15,0002.39
2022-07-04 13:02:00,,0825.7,5.00,0.00,29.9,28.7,00.0,38.7,31.8,23.9,0000.0,0005.54,0003.13,0002.39
2022-07-04 13:03:00,,0825.7,5.00,0.00,29.9,28.7,00.0,38.7,31.8,23.8,0000.0,0005.67,0003.15,0002.39
2022-07-04 13:04:00,,0825.8,5.00,0.00,29.9,28.8,00.0,38.7,31.8,23.7,0000.0,0005.39,0003.11,0002.38
2022-07-04 13:05:00,,0825.7,5.01,0.00,29.9,28.8,00.0,38.7,31.8,23.9,0000.0,0006.16,0003.10,0002.37
2022-07-04 13:06:00,,0825.8,5.00,0.00,29.9,28.9,00.0,38.7,31.8,24.1,0000.0,0006.09,0003.04,0002.36
2022-07-04 13:07:00,,0825.7,5.01,0.00,29.9,28.9,00.0,38.7,31.8,24.4,0000.0,0006.21,0003.01,0002.35
2022-07-04 13:08:00,,0825.7,5.01,0.00,30.0,28.9,00.0,38.7,31.9,24.0,0000.0,0006.31,0003.00,0002.34
2022-07-04 13:09:00,,0825.7,5.00,0.00,30.0,29.0,00.0,38.7,31.9,24.2,0000.0,0006.36,0003.01,0002.34
2022-07-04 13:10:00,,0825.7,5.01,0.00,30.0,29.0,00.0,38.7,31.9,24.4,0000.0,0007.00,0003.05,0002.37
2022-07-04 13:11:00,,0825.7,5.01,0.00,30.0,29.0,00.0,38.8,31.9,24.5,0000.0,0007.48,0003.09,0002.37
2022-07-04 13:12:00,,0825.8,5.00,0.00,30.0,29.0,00.0,38.8,31.9,24.3,0000.0,0007.50,0003.10,0002.37
2022-07-04 13:13:00,,0825.8,5.00,0.00,30.1,29.1,00.0,38.8,32.0,23.9,0000.0,0007.46,0003.07,0002.36
2022-07-04 13:14:00,,0825.8,5.00,0.00,30.1,29.1,00.0,38.8,32.0,24.0,0000.0,0007.35,0003.01,0002.34
2022-07-04 13:15:00,,0825.7,4.99,0.00,30.1,29.1,00.0,38.8,32.0,24.0,0000.0,0007.36,0003.02,0002.35
2022-07-04 13:16:00,,0825.7,5.00,0.00,30.1,29.2,00.0,38.8,32.0,23.8,0000.0,0006.69,0003.05,0002.34
2022-07-04 13:17:00,,0825.7,4.99,0.00,30.1,29.2,00.0,38.8,32.0,23.5,0000.0,0006.51,0003.07,0002.34
2022-07-04 13:18:00,,0826.0,5.01,0.00,30.1,29.2,00.0,38.9,32.0,23.6,0000.0,0006.62,0003.13,0002.34
2022-07-04 13:19:00,,0826.2,5.00,0.00,30.2,29.2,00.0,38.9,32.1,23.8,0000.0,0007.06,0003.14,0002.36
2022-07-04 13:20:00,,0826.0,4.99,0.00,30.2,29.2,00.0,38.9,32.1,23.7,0000.0,0007.10,0003.14,0002.36
2022-07-04 13:21:00,,0826.1,5.00,0.00,30.2,28.8,00.0,38.9,32.0,23.5,0000.0,0006.42,0003.13,0002.33
2022-07-04 13:22:00,,0826.0,5.02,0.00,30.2,27.9,00.0,38.8,31.9,23.5,0000.0,0005.55,0003.06,0002.31
2022-07-04 13:23:00,,0826.0,5.00,0.00,30.1,27.7,00.0,38.8,31.8,23.3,0000.0,0006.16,0003.08,0002.32
2022-07-04 13:24:00,,0826.0,5.00,0.00,30.1,27.7,00.0,38.8,31.7,23.5,0000.0,0006.63,0003.10,0002.33
2022-07-04 13:25:00,,0825.9,4.98,0.00,30.0,27.8,00.0,38.8,31.7,23.5,0000.0,0006.79,0003.14,0002.33
2022-07-04 13:26:00,,0825.9,5.01,0.00,29.9,27.9,00.0,38.7,31.7,23.6,0000.0,0007.00,0003.16,0002.32
2022-07-04 13:27:00,,0825.8,4.99,0.00,29.9,28.0,00.0,38.7,31.7,23.8,0000.0,0007.11,0003.16,0002.32
2022-07-04 13:28:00,,0825.9,5.00,0.00,29.9,28.2,00.0,38.7,31.7,23.6,0000.0,0007.21,0003.16,0002.30
2022-07-04 13:29:00,,0825.9,5.01,0.00,29.9,28.3,00.0,38.7,31.7,23.9,0000.0,0007.12,0003.12,0002.29
2022-07-04 13:30:00,,0825.8,5.00,0.00,29.9,28.4,00.0,38.7,31.7,23.7,0000.0,0006.50,0003.09,0002.27
2022-07-04 13:31:00,,0825.9,4.99,0.00,29.9,28.5,00.0,38.7,31.7,23.4,0000.0,0006.50,0003.12,0002.26
2022-07-04 13:32:00,,0825.8,5.00,0.00,29.9,28.6,00.0,38.7,31.7,23.7,0000.0,0007.18,0003.13,0002.27
2022-07-04 13:33:00,,0826.0,5.01,0.00,29.9,28.6,00.0,38.7,31.7,23.7,0000.0,0007.21,0003.14,0002.27
2022-07-04 13:34:00,,0826.0,4.99,0.00,29.9,28.7,00.0,38.7,31.8,23.8,0000.0,0006.74,0003.13,0002.26
2022-07-04 13:35:00,,0826.0,5.01,0.00,29.9,28.7,00.0,38.7,31.8,23.7,0000.0,0006.45,0003.16,0002.26
2022-07-04 13:36:00,,0826.2,5.01,0.00,30.0,28.8,00.0,38.7,31.8,23.7,0000.0,0006.34,0003.16,0002.26
2022-07-04 13:37:00,,0825.9,5.00,0.00,30.0,28.8,00.0,38.7,31.9,23.6,0000.0,0006.34,0003.17,0002.26
2022-07-04 13:38:00,,0825.7,5.00,0.00,30.0,28.9,00.0,38.8,31.9,23.9,0000.0,0006.17,0003.16,0002.27
2022-07-04 13:39:00,,0825.9,5.01,0.00,30.0,28.9,00.0,38.8,31.9,24.3,0000.0,0006.15,0003.16,0002.29
2022-07-04 13:40:00,,0826.0,5.01,0.00,30.0,29.0,00.0,38.8,31.9,24.7,0000.0,0006.19,0003.18,0002.32
2022-07-04 13:41:00,,0826.1,5.01,0.00,30.0,29.0,00.0,38.8,32.0,24.5,0000.0,0006.30,0003.19,0002.34
2022-07-04 13:42:00,,0826.2,4.99,0.00,30.1,29.0,00.0,38.8,32.0,24.7,0000.0,0006.30,0003.17,0002.35
2022-07-04 13:43:00,,0826.0,5.00,0.00,30.1,28.9,00.0,38.8,32.0,24.6,0000.0,0005.85,0003.18,0002.37
2022-07-04 13:44:00,,0826.0,5.01,0.00,30.1,28.1,00.0,38.7,31.9,24.5,0000.0,0005.90,0003.19,0002.38
2022-07-04 13:45:00,,0826.1,5.00,0.00,30.0,27.7,00.0,38.7,31.8,24.6,0000.0,0006.08,0003.20,0002.39
2022-07-04 13:46:00,,0825.7,5.00,0.00,30.0,27.6,00.0,38.7,31.7,24.3,0000.0,0005.87,0003.17,0002.38
2022-07-04 13:47:00,,0825.7,4.99,0.00,29.9,27.7,00.0,38.7,31.6,25.0,0000.0,0005.89,0003.17,0002.39
2022-07-04 13:48:00,,0825.7,5.00,0.00,29.8,27.8,00.0,38.7,31.5,24.6,0000.0,0005.78,0003.17,0002.41
2022-07-04 13:49:00,,0825.7,4.99,0.00,29.8,27.9,00.0,38.7,31.6,24.2,0000.0,0005.79,0003.18,0002.42
2022-07-04 13:50:00,,0825.7,5.00,0.00,29.8,28.0,00.0,38.6,31.6,24.7,0000.0,0006.00,0003.24,0002.42
2022-07-04 13:51:00,,0825.7,5.00,0.00,29.8,28.1,00.0,38.6,31.6,24.9,0000.0,0006.08,0003.25,0002.43
2022-07-04 13:52:00,,0825.7,5.00,0.00,29.8,28.2,00.0,38.6,31.6,24.2,0000.0,0007.38,0003.29,0002.45
2022-07-04 13:53:00,,0825.7,5.00,0.00,29.8,28.3,00.0,38.6,31.6,24.6,0000.0,0007.44,0003.30,0002.45
2022-07-04 13:54:00,,0825.7,5.00,0.00,29.8,28.4,00.0,38.6,31.7,24.9,0000.0,0007.64,0003.31,0002.45
2022-07-04 13:55:00,,0825.7,5.00,0.00,29.8,28.5,00.0,38.6,31.7,24.9,0000.0,0007.68,0003.30,0002.46
2022-07-04 13:56:00,,0825.7,4.99,0.00,29.8,28.6,00.0,38.6,31.7,25.8,0000.0,0007.67,0003.33,0002.49
2022-07-04 13:57:00,,0825.7,5.01,0.00,29.8,28.7,00.0,38.6,31.7,26.2,0000.0,0007.73,0003.33,0002.52
2022-07-04 13:58:00,,0825.7,5.00,0.00,29.9,28.7,00.0,38.6,31.7,26.8,0000.0,0007.77,0003.34,0002.55
2022-07-04 13:59:00,,0825.7,5.01,0.00,29.9,28.8,00.0,38.6,31.8,27.2,0000.0,0008.34,0003.32,0002.55
